Vertical_Velocity
-1 -2 1 -2 -13 -15 -2 9 2 7 1 2 -3 -6 3 -4 0 -2 6 -1 -2 1 2 1 1 -0 -1 -0 1 -1 -0 1 0 0 0 -0 1 1 -1 1 1 0 -0 -0 -0 -2 -1 -2 -0
1 -6 -2 -5 -18 -14 5 22 9 -0 -6 -3 -5 -3 -4 1 -1 -2 -1 0 -3 0 -1 0 1 0 -0 -1 -0 -1 -0 0 0 1 -0 0 -0 1 1 -0 0 0 0 -1 0 -1 -1 1 0
0 -1 -4 -11 -13 -13 2 29 6 -8 -5 -1 -5 -1 -4 5 -1 2 1 0 1 -2 1 -1 -0 1 1 -1 -0 -1 -0 0 -0 -0 -1 2 0 1 0 1 0 0 -1 0 -0 0 0 0 1
-1 -6 -5 -15 -5 1 9 8 4 -1 1 -6 9 -5 -0 6 -0 2 2 1 3 -2 -2 0 1 -1 0 1 0 -1 1 1 -1 -1 0 -0 0 1 1 0 0 1 -1 -0 -0 0 -2 -0 1
-2 2 -8 -12 2 4 5 -1 -4 -2 -1 2 -3 12 4 2 3 -1 0 -0 1 1 -1 -1 -2 -0 0 1 1 -0 1 0 0 -0 -0 1 -0 1 1 -1 -0 1 0 0 -0 1 0 -1 1
-5 3 -15 -8 3 4 3 3 -7 4 -0 1 -8 4 4 5 3 -1 -1 1 -2 2 1 1 -1 -2 1 1 1 1 -0 -0 -0 1 0 -0 1 0 -1 -0 -0 -0 1 1 -1 -0 1 -0 -0
-2 -4 -3 -11 10 2 21 -8 3 3 -2 8 5 -10 -4 4 3 2 -0 -2 -1 0 1 -0 0 1 -2 1 1 1 -1 -2 1 0 1 2 -0 1 1 -0 0 -0 -0 -1 0 0 1 -0 -1
2 -17 -8 4 10 4 14 -6 6 -4 10 -4 -3 -15 6 14 2 1 -1 -1 -4 -2 4 1 -0 2 1 0 -1 3 2 -1 -1 -0 -1 1 1 3 2 -0 1 1 1 -0 -1 0 -0 1 1
3 -29 -15 15 4 26 5 -5 -4 2 6 -7 -8 1 10 6 -3 -3 -0 -1 -2 1 -0 5 1 4 -1 1 -1 0 3 3 -0 -0 -0 2 1 1 2 1 -0 0 -2 2 -0 0 1 2 2
-2 -12 -0 13 7 4 1 -10 3 -4 2 -4 -4 3 4 2 2 0 0 5 1 -1 3 -1 4 5 2 -1 1 2 1 2 1 0 -0 1 2 0 3 1 0 -1 -1 1 0 0 -0 0 0
-1 -43 42 -3 -1 0 6 -2 0 -5 -8 9 5 3 5 1 -2 2 1 4 8 0 -7 1 0 0 5 1 -0 4 1 2 -1 1 1 1 1 1 4 -1 0 -2 1 1 -0 1 0 -0 -0
-26 -7 13 13 2 -0 8 12 -8 -11 18 4 -4 1 -5 1 1 5 4 1 3 6 -1 -3 -2 1 4 -0 0 1 2 0 1 -1 -0 2 3 1 6 -3 1 -4 2 1 -0 -1 -0 0 0
-20 26 -3 4 -2 -6 -3 10 4 -20 7 -5 0 -4 1 0 3 1 7 1 -1 3 0 2 2 5 3 2 -1 1 5 1 -0 -0 -1 2 2 3 6 -3 0 -2 -1 1 1 -1 -0 1 0
15 -4 -8 -3 4 -1 -12 11 -9 16 12 -6 -3 -0 -1 6 2 7 1 3 4 1 0 -3 -1 4 -2 3 -1 -1 2 2 3 2 1 1 0 4 5 -1 -0 -1 -1 1 0 -1 -1 -1 0
-2 -10 4 -1 15 -1 5 -18 -48 84 15 2 -0 -1 5 2 -2 7 7 4 10 6 4 5 3 0 0 2 0 -2 -2 2 1 1 0 1 1 1 3 4 -2 -0 -1 1 1 0 0 -0 -1
5 -3 -6 20 8 32 9 -66 18 3 8 11 5 3 1 4 5 -0 10 4 2 2 7 6 4 2 1 4 5 0 2 0 1 2 1 1 1 2 4 4 -0 -1 -1 -1 0 0 0 -0 -0
13 -2 13 7 6 18 -5 -30 9 8 10 10 5 2 1 5 -3 -2 3 9 -2 4 3 7 1 0 0 -1 2 1 -1 -2 -1 0 0 1 -0 1 4 5 2 -0 -1 -1 0 -0 0 -0 -1
-0 10 -1 -16 29 12 8 -39 11 10 0 18 6 -0 -1 1 6 7 1 4 7 3 1 7 5 4 2 -0 -3 -2 -1 1 1 2 1 -1 -1 -1 3 5 4 2 1 1 1 1 1 1 -0
-7 3 -9 7 14 1 -8 -9 2 -7 -9 -5 8 5 -2 -3 12 7 3 1 3 2 -3 -5 4 3 -0 1 0 2 8 1 1 4 2 1 -0 -1 2 2 4 3 2 -0 1 2 1 0 0
6 -2 -5 -10 -4 16 22 -19 19 9 -21 -5 4 -2 -2 9 -3 2 2 -1 -0 7 5 -1 2 0 2 4 7 4 -2 -4 -7 -5 -3 -2 1 1 2 2 1 1 0 1 1 1 -0 2 -1
6 -0 -3 -26 6 25 -13 -21 15 10 9 -1 -12 16 6 -9 5 -2 -4 4 3 -2 4 2 3 1 6 3 -1 -5 0 -3 -0 0 4 8 1 -1 0 0 1 0 2 2 0 0 2 -1 1
-4 9 -6 -12 -0 -3 13 -59 28 6 -3 -3 8 2 5 8 2 0 0 0 1 5 6 5 4 3 -1 3 -3 -2 6 3 8 4 -3 -1 -1 -0 -1 -0 -0 1 1 2 -1 1 -1 1 -1
-0 -3 -3 -5 4 -6 14 -23 9 13 1 -11 2 -3 11 9 12 3 -7 4 8 2 2 7 5 1 -3 3 -1 0 3 2 -5 1 0 2 0 1 1 0 0 2 0 0 1 -0 -1 -1 -0
-1 -0 -1 -2 2 -16 8 3 -2 4 -13 -2 2 1 11 0 7 2 10 10 1 1 -3 0 1 -1 1 3 1 2 4 1 -0 3 0 1 2 0 1 -0 0 -0 0 -1 -2 -1 1 -1 -1
4 -0 -7 -4 -4 -28 3 9 -37 -10 2 -11 1 6 12 12 13 15 6 -2 -3 -8 6 6 0 -3 6 2 6 3 4 2 2 -0 0 3 1 6 2 -0 2 1 -3 1 -2 -0 0 0 2
-1 2 3 -4 -1 3 18 -13 -43 5 19 16 7 18 19 2 3 2 -0 0 -1 0 3 4 3 -0 4 -0 7 1 3 1 0 -1 1 -2 1 3 -3 -1 -1 -1 -1 1 -1 1 -0 1 -0
2 -3 2 -3 2 4 1 5 -9 0 -4 -5 -9 0 2 6 8 -3 15 -3 5 -4 -1 3 3 2 4 5 2 -0 4 4 4 -3 -1 -4 12 -4 2 8 -0 -2 -1 1 2 2 1 -2 -0
-3 -2 0 -0 -3 -0 2 9 -1 -1 -12 3 5 -10 4 3 -7 7 5 -9 -2 -0 1 0 1 0 14 7 5 3 8 7 5 8 -1 3 -2 -4 1 -1 2 -2 -0 -0 -0 1 1 -0 -1
2 1 -4 -2 -2 -1 13 8 1 1 12 -0 -7 1 4 -3 -5 -2 -5 2 2 11 4 1 5 1 1 -1 -1 6 6 4 6 -2 12 -1 4 -0 -0 -2 -0 1 1 6 4 -2 -3 1 -1
-0 -1 -0 6 2 7 -0 11 0 4 22 2 5 -5 -8 -3 -2 -2 -1 5 7 5 2 -3 6 4 6 6 0 3 2 5 1 -1 -1 6 2 -4 2 -5 -0 2 3 1 1 2 8 1 1
Height
5792 5792 5792 5793 5795 5791 5792 5797 5807 5809 5809 5809 5807 5808 5811 5812 5815 5822 5825 5825 5827 5829 5830 5831 5832 5833 5835 5836 5839 5841 5843 5845 5847 5849 5850 5852 5854 5856 5858 5860 5861 5862 5863 5863 5863 5863 5862 5862 5862
5783 5783 5784 5784 5785 5784 5787 5793 5800 5804 5800 5800 5801 5800 5804 5807 5810 5814 5819 5822 5823 5825 5827 5828 5830 5831 5833 5834 5836 5839 5842 5843 5845 5848 5849 5851 5854 5856 5858 5859 5860 5862 5862 5863 5864 5863 5863 5862 5863
5776 5774 5775 5775 5775 5776 5781 5787 5792 5792 5791 5792 5794 5796 5798 5802 5805 5809 5813 5816 5819 5821 5824 5826 5827 5829 5831 5832 5834 5836 5839 5841 5843 5846 5848 5850 5853 5855 5857 5858 5860 5861 5862 5863 5864 5864 5864 5864 5864
5765 5766 5767 5765 5768 5772 5774 5778 5778 5782 5783 5785 5788 5790 5792 5797 5800 5803 5807 5811 5814 5816 5819 5822 5824 5826 5829 5830 5832 5835 5837 5839 5841 5844 5847 5849 5851 5854 5856 5857 5859 5860 5861 5863 5864 5865 5865 5865 5865
5757 5755 5754 5758 5760 5763 5767 5768 5763 5771 5774 5775 5779 5782 5784 5790 5793 5796 5800 5804 5808 5811 5814 5817 5820 5823 5825 5827 5829 5832 5835 5837 5838 5841 5844 5847 5849 5852 5854 5856 5858 5859 5861 5862 5863 5865 5866 5866 5866
5745 5746 5747 5746 5752 5754 5752 5755 5754 5756 5762 5765 5769 5772 5777 5783 5786 5788 5793 5797 5801 5806 5808 5811 5815 5819 5822 5824 5826 5829 5832 5834 5836 5839 5841 5844 5847 5850 5853 5854 5856 5858 5859 5861 5862 5864 5865 5866 5866
5734 5735 5736 5739 5741 5742 5746 5746 5743 5747 5750 5755 5759 5763 5769 5773 5775 5779 5784 5789 5794 5798 5802 5806 5809 5813 5818 5821 5823 5826 5828 5831 5833 5836 5839 5842 5845 5847 5850 5853 5854 5856 5858 5859 5861 5863 5864 5865 5866
5722 5721 5724 5727 5733 5735 5738 5735 5732 5735 5740 5743 5744 5750 5757 5763 5766 5771 5775 5779 5785 5789 5795 5799 5803 5807 5811 5816 5819 5822 5824 5827 5830 5833 5836 5839 5842 5845 5848 5850 5852 5854 5856 5857 5859 5861 5862 5864 5865
5709 5705 5710 5719 5722 5725 5727 5723 5722 5723 5727 5730 5733 5739 5746 5752 5757 5761 5765 5769 5775 5781 5786 5791 5796 5800 5805 5810 5813 5817 5821 5823 5826 5829 5833 5836 5839 5842 5845 5848 5850 5852 5853 5856 5857 5859 5860 5862 5863
5689 5691 5700 5705 5709 5710 5711 5711 5710 5712 5715 5719 5724 5728 5734 5739 5746 5751 5757 5762 5768 5774 5778 5783 5789 5793 5799 5803 5807 5811 5815 5819 5822 5824 5828 5832 5836 5840 5843 5845 5847 5849 5851 5854 5854 5856 5857 5859 5861
5672 5676 5692 5688 5689 5691 5695 5697 5698 5701 5706 5710 5714 5717 5722 5729 5735 5741 5746 5753 5759 5764 5768 5773 5778 5783 5791 5796 5800 5805 5810 5813 5817 5821 5824 5828 5832 5836 5840 5842 5843 5846 5849 5851 5852 5854 5855 5856 5858
5648 5664 5663 5669 5670 5672 5679 5682 5685 5685 5698 5696 5701 5706 5710 5717 5722 5729 5736 5742 5749 5754 5758 5763 5768 5774 5780 5788 5793 5798 5803 5808 5812 5815 5819 5823 5827 5832 5835 5838 5840 5842 5845 5848 5850 5851 5852 5853 5855
5628 5649 5640 5647 5648 5653 5657 5667 5667 5674 5682 5685 5688 5692 5698 5704 5710 5716 5723 5729 5736 5741 5747 5754 5759 5765 5771 5780 5786 5792 5797 5802 5806 5810 5814 5818 5823 5827 5831 5833 5836 5838 5842 5844 5846 5848 5849 5851 5852
5609 5613 5618 5621 5627 5632 5636 5644 5646 5668 5668 5672 5676 5680 5685 5693 5701 5707 5710 5718 5726 5732 5738 5745 5751 5757 5763 5772 5778 5784 5790 5795 5799 5804 5809 5813 5817 5822 5826 5829 5833 5835 5837 5840 5843 5844 5845 5847 5849
5579 5581 5590 5601 5606 5609 5613 5617 5636 5662 5650 5654 5660 5668 5674 5680 5688 5696 5704 5711 5719 5725 5730 5737 5743 5749 5755 5763 5770 5776 5783 5789 5794 5798 5803 5808 5813 5817 5821 5825 5828 5831 5834 5836 5838 5840 5842 5843 5846
5536 5542 5557 5580 5576 5587 5583 5598 5625 5632 5631 5641 5648 5655 5663 5669 5677 5684 5694 5701 5706 5714 5720 5727 5734 5741 5747 5755 5762 5768 5775 5781 5787 5792 5797 5802 5807 5812 5816 5820 5824 5827 5829 5832 5835 5837 5839 5840 5841
5509 5506 5514 5537 5545 5552 5554 5582 5596 5608 5614 5624 5631 5639 5649 5659 5665 5674 5682 5690 5698 5705 5711 5718 5726 5735 5742 5748 5754 5760 5766 5773 5779 5786 5791 5796 5801 5806 5811 5815 5819 5822 5825 5828 5831 5833 5835 5836 5838
5471 5470 5480 5495 5514 5515 5525 5552 5572 5582 5590 5604 5615 5623 5635 5646 5655 5662 5672 5680 5688 5696 5702 5709 5719 5726 5733 5740 5746 5752 5758 5765 5772 5778 5784 5789 5795 5800 5805 5810 5813 5817 5821 5824 5826 5828 5830 5833 5834
5440 5445 5449 5467 5486 5486 5500 5521 5537 5551 5565 5580 5594 5607 5617 5632 5641 5649 5658 5668 5678 5686 5694 5701 5709 5717 5724 5732 5740 5747 5753 5758 5765 5772 5778 5783 5789 5794 5799 5803 5807 5811 5814 5818 5821 5824 5826 5827 5829
5421 5422 5431 5442 5460 5459 5473 5483 5505 5521 5541 5561 5575 5590 5605 5615 5625 5635 5646 5656 5667 5677 5684 5692 5701 5709 5718 5725 5733 5737 5744 5750 5757 5763 5770 5777 5782 5787 5792 5796 5800 5805 5808 5812 5815 5818 5820 5822 5823
5403 5402 5411 5416 5434 5436 5443 5454 5480 5498 5517 5536 5556 5575 5584 5598 5613 5623 5632 5643 5654 5665 5675 5683 5693 5700 5708 5717 5723 5729 5736 5741 5749 5755 5762 5769 5775 5780 5785 5789 5793 5798 5802 5805 5808 5811 5814 5816 5818
5393 5395 5395 5399 5412 5416 5429 5427 5454 5472 5489 5508 5535 5551 5570 5585 5597 5609 5620 5630 5642 5654 5665 5674 5682 5691 5699 5708 5715 5723 5731 5737 5744 5749 5755 5761 5768 5773 5778 5783 5787 5791 5795 5798 5801 5804 5806 5809 5812
5386 5385 5387 5389 5391 5399 5411 5411 5433 5450 5467 5491 5515 5534 5552 5566 5581 5594 5606 5618 5630 5640 5651 5662 5671 5681 5690 5699 5707 5714 5723 5728 5733 5739 5746 5752 5758 5764 5770 5775 5780 5784 5788 5791 5795 5797 5800 5802 5804
5385 5383 5382 5381 5381 5375 5394 5397 5407 5426 5453 5477 5497 5515 5532 5548 5563 5579 5594 5602 5613 5624 5637 5649 5660 5671 5681 5689 5698 5706 5715 5720 5726 5732 5737 5744 5749 5755 5762 5767 5773 5777 5781 5784 5787 5790 5793 5795 5797
5384 5380 5378 5377 5373 5373 5386 5386 5396 5420 5444 5464 5484 5501 5518 5533 5546 5560 5574 5587 5599 5611 5625 5637 5650 5660 5671 5680 5689 5697 5705 5713 5719 5724 5730 5737 5741 5747 5752 5758 5763 5768 5772 5776 5779 5782 5785 5787 5789
5383 5380 5378 5374 5373 5375 5379 5379 5393 5413 5433 5452 5467 5484 5495 5509 5527 5544 5560 5576 5588 5600 5613 5624 5638 5649 5662 5670 5680 5687 5696 5704 5711 5717 5724 5729 5735 5739 5743 5748 5754 5758 5762 5766 5770 5773 5776 5779 5781
5384 5382 5379 5378 5378 5378 5383 5387 5389 5400 5418 5439 5457 5471 5484 5497 5514 5531 5547 5561 5577 5589 5603 5615 5627 5637 5651 5662 5669 5677 5686 5694 5701 5708 5716 5722 5727 5731 5735 5740 5745 5749 5754 5758 5761 5764 5766 5768 5771
5387 5385 5384 5381 5381 5384 5387 5389 5391 5393 5404 5428 5448 5465 5479 5490 5501 5518 5531 5549 5565 5580 5592 5603 5615 5627 5640 5651 5659 5668 5676 5685 5693 5699 5706 5713 5719 5723 5728 5732 5736 5740 5745 5749 5752 5755 5757 5760 5761
5392 5388 5385 5386 5386 5387 5389 5393 5393 5398 5410 5429 5444 5462 5474 5484 5492 5508 5525 5540 5554 5568 5580 5593 5604 5615 5626 5638 5648 5658 5667 5675 5682 5691 5697 5704 5710 5716 5720 5723 5728 5732 5736 5740 5743 5747 5749 5750 5752
5394 5389 5387 5387 5390 5389 5391 5395 5398 5406 5417 5430 5444 5454 5471 5481 5489 5501 5517 5530 5543 5555 5569 5582 5593 5604 5614 5625 5636 5646 5655 5664 5673 5681 5689 5695 5701 5705 5711 5715 5720 5723 5728 5731 5735 5738 5741 5742 5742